Regional Weather Roundup
Issued by NWS

Home | Current Version | Previous Version | Graphics & Text | Print | Product List | Glossary On
Versions: 1 2 3 4 5 6 7 8 9 10 11 12 13 14 15 16 17 18 19 20 21 22 23 24 25 26 27 28 29 30 31 32 33 34 35 36 37 38 39 40 41 42 43 44 45 46 47 48 49 50
000
ASUS43 KLOT 280808
RWRIL

ILLINOIS REGIONAL WEATHER ROUNDUP
NATIONAL WEATHER SERVICE CHICAGO/ROMEOVILLE IL
300 AM CDT TUE JUL 28 2015

NOTE: "FAIR" INDICATES FEW OR NO CLOUDS BELOW 12,000 FEET WITH NO
SIGNIFICANT WEATHER AND/OR OBSTRUCTIONS TO VISIBILITY.

* THESE STATIONS ARE NOT UNDER NWS QUALITY CONTROL. THEY ALSO MAY NOT
  REPORT WEATHER SUCH AS PRECIPITATION OR FOG.

ILZ001-002-007-009-015-016-024-280900-
NORTHWEST ILLINOIS

CITY           SKY/WX    TMP DP  RH WIND       PRES   REMARKS
MOLINE         CLEAR     72  69  90 E6        29.95S
STERLING*      CLEAR     66  64  94 E5        29.97S
SAVANNA*       CLEAR     70  64  81 E3        29.96F
$$

ILZ003-004-008-010-011-017-018-280900-
NORTH CENTRAL ILLINOIS

CITY           SKY/WX    TMP DP  RH WIND       PRES   REMARKS
ROCKFORD       PTCLDY    70  63  78 E5        30.01S
FREEPORT*      CLEAR     64  62  94 E5        30.01S
ROCHELLE*      CLEAR     68  64  88 E5        30.00F
DE KALB*       CLEAR     65  63  91 E6        30.01S
PERU*          CLEAR     69  65  89 NE7       29.99S
$$

ILZ005-006-012>014-019>023-280900-
NORTHEAST ILLINOIS

CITY           SKY/WX    TMP DP  RH WIND       PRES   REMARKS
CHICAGO-OHARE  PTCLDY    71  66  84 N6        29.99F
CHICAGO-MIDWAY PTCLDY    76  66  71 E5        29.99S
AURORA         PTCLDY    68  63  84 CALM      29.99F
LANSING*       PTCLDY    70  62  74 E5        29.99F
JOLIET*        PTCLDY    73  67  82 NE3       29.98F
WAUKEGAN       CLEAR     64  63  96 CALM      30.00F
DUPAGE AIRPORT PTCLDY    69  64  84 NE3       29.99F
KANKAKEE*      PTCLDY    69  67  92 CALM      29.98F
WHEELING       PTCLDY    69  66  90 CALM      30.01F
MORRIS*        PTCLDY    70  66  88 CALM      29.96S
ROMEOVILLE*    PTCLDY    70  65  84 E6        29.99S
NORTHERLY ISL    N/A     72  68  87 CALM        N/A
$$

LMZ740>746-280900-
SOUTHERN LAKE MICHIGAN

STATION/POSITION SKY/WX   TEMP    WIND        PRES    VSBY  WAVE
                          AIR SEA DIR/SP/G                  HT/PER
                          (F)     (DEG/KT/KT) (MB)    (MI)  (FT/S)
HARRISON CRIB              74      90/  9/ 10   N/A
BURNHAM HARBOR             72     360/  2/  5   N/A
CALUMET HARBOR             74      50/  3/  4   N/A
BURNS HARBOR               77     110/  9/ 14 1016.3R
MICHIGAN CITY              74     100/  7/  8   N/A
MICHIGAN CITY 6N           74 74  140/  4/  6   N/A           1
ST. JOSEPH                 72 73  160/  8/  8   N/A           1
$$

ILZ025>027-034>036-040-047-049-050-058-095>099-280900-
WEST-CENTRAL ILLINOIS

CITY           SKY/WX    TMP DP  RH WIND       PRES   REMARKS
QUINCY         CLEAR     72  69  90 S7        29.94F
GALESBURG*     CLEAR     72  71  95 E3        29.96S
MACOMB*        PTCLDY    71  71 100 E3        29.97F FOG
JACKSONVILLE*  MOCLDY    74  73  93 CALM      29.94F
PITTSFIELD*    MOCLDY    72  70  93 CALM      29.96S
$$

ILZ028>032-037-038-041>044-048-051>054-059>061-280900-
CENTRAL ILLINOIS

CITY           SKY/WX    TMP DP  RH WIND       PRES   REMARKS
PONTIAC        PTCLDY    71  68  90 E3        29.98S
BLOOMINGTON    PTCLDY    73  72  97 SE3       29.99S
DECATUR        CLOUDY    74  71  91 NE3       29.95F
PEORIA         CLEAR     77  71  82 E5        29.96F
LACON*         CLEAR     71  67  87 E5        29.96S
LINCOLN*       MOCLDY    74  72  91 CALM      29.95S
SPRINGFIELD    MOCLDY    78  74  87 SE3       29.95F HX  81
TAYLORVILLE    MOCLDY    72  72 100 CALM      29.95S FOG
$$

ILZ033-039-045-046-055>057-062-063-280900-
EAST-CENTRAL ILLINOIS

CITY           SKY/WX    TMP DP  RH WIND       PRES   REMARKS
CHAMPAIGN      MOCLDY    73  71  93 E3        29.97S FOG
DANVILLE*      PTCLDY    71  70  97 E3        29.95S FOG
RANTOUL*       MOCLDY    74  72  92 E3        29.97S
MATTOON        CLOUDY    75  71  87 CALM      29.94F
PARIS*         MOCLDY    73  72  98 CALM      29.97S FOG
$$

ILZ079-100>102-280900-
SOUTHWEST ILLINOIS

CITY           SKY/WX    TMP DP  RH WIND       PRES   REMARKS
ALTON          MOCLDY    71  70  97 CALM      29.94F
BELLEVILLE     MOCLDY    73  73 100 E2        29.92F
CAHOKIA*       MOCLDY    75  72  90 CALM      29.93F
SPARTA*        MOCLDY    75  73  95 CALM      29.95R
$$

ILZ064>066-069>071-074>076-080>082-084>086-088>090-092>094-280900-
SOUTH-CENTRAL ILLINOIS

CITY           SKY/WX    TMP DP  RH WIND       PRES   REMARKS
CARBONDALE     CLOUDY    75  73  93 CALM      29.94S
CAIRO*         MOCLDY    76  75  99 CALM      29.93F
EFFINGHAM*     MOCLDY    75  72  90 CALM      29.96S FOG
MARION         CLOUDY    77  75  94 CALM      29.94F
MT. VERNON     MOCLDY    73  68  83 CALM      29.94F
CENTRALIA*     MOCLDY    72  70  92 CALM      29.94F FOG
SALEM*         MOCLDY    75  72  89 S3        29.95F
METROPOLIS*    CLOUDY    76  76 100 CALM      29.95S FOG
$$

ILZ067-068-072-073-078-083-087-091-280900-
SOUTHEAST ILLINOIS

CITY           SKY/WX    TMP DP  RH WIND       PRES   REMARKS
LAWRENCEVILLE  MOCLDY    74  72  93 NE3       29.95F
FLORA*         MOCLDY    72  71  95 CALM      29.94S
FAIRFIELD*     MOCLDY    73  73  98 CALM      29.93F FOG
HARRISBURG*    MOCLDY    73  73 100 SE5       29.95F FOG
ROBINSON*      MOCLDY    72  71  97 E5        29.95F FOG
CARMI*         MOCLDY    72  67  85 CALM      29.94F HAZE
$$

ABBREVIATIONS USED IN REMARKS
   TC - TEMPERATURE IN CELSIUS
  WCI - WIND CHILL INDEX
   HX - HEAT INDEX
  VSB - VISIBILITY
$$



USA.gov is the U.S. government's official web portal to all federal, state and local government web resources and services.